Weather History for PASX - February, 2013

Change the Weather History Date:

Saturday, February 23, 2013

  Actual Average (PAEN) Record (PAEN)
Temperature  
Mean Temperature 17 °F -  
Max Temperature 24 °F 29 °F - (-1)
Min Temperature 10 °F 7 °F - (-1)
Degree Days  
Heating Degree Days 48    
Moisture  
Dew Point 15 °F    
Average Humidity 82    
Maximum Humidity 93    
Minimum Humidity 69    
Precipitation  
Precipitation 0.00 in - - ()
Sea Level Pressure  
Sea Level Pressure 29.21 in    
Wind  
Wind Speed 5 mph (ENE)    
Max Wind Speed 14 mph    
Max Gust Speed 23 mph    
Visibility 9 miles    
Events      
Averages and records for this station are not official NWS values.
T = Trace of Precipitation, MM = Missing Value Source: NWS Daily Summary

Daily Weather History Graph

Daily Weather History Graph

Search for Another Location

Airport or City:

Trip Planner

Search our weather history database for the weather conditions in past years. The results will help you decide how hot, cold, wet, or windy it might be!

Date:

Astronomy

Feb. 23, 2013 Rise Set
Actual Time 8:19 AM AKST 6:16 PM AKST
Civil Twilight 7:36 AM AKST 6:59 PM AKST
Nautical Twilight 6:47 AM AKST 7:48 PM AKST
Astronomical Twilight 5:58 AM AKST 8:37 PM AKST
Moon 4:22 PM AKST (2/23) 7:07 AM AKST (2/23)
Length of Visible Light 11h 22m
Length of Day
9h 56m
Waxing Gibbous, 96% of the Moon is Illuminated
Feb 23
Waxing Gibbous
Feb 25
Full
Mar 4
Last Quarter
Mar 11
New
Mar 19
First Quarter

Hourly Weather History & Observations

Time (AKST) Temp. Windchill Dew Point Humidity Pressure Visibility Wind Dir Wind Speed Gust Speed Precip Events Conditions
12:16 AM 12.2 °F 4.3 °F 6.8 °F 79% 29.34 in 10.0 mi ENE 4.6 mph - N/A   Clear
12:36 AM 12.2 °F 6.1 °F 6.8 °F 79% 29.34 in 10.0 mi East 3.5 mph - N/A   Clear
12:56 AM 10.4 °F 4.0 °F 5.0 °F 79% 29.33 in 10.0 mi ENE 3.5 mph - N/A   Partly Cloudy
1:16 AM 12.2 °F 4.3 °F 6.8 °F 79% 29.33 in 10.0 mi NE 4.6 mph - N/A   Mostly Cloudy
1:36 AM 10.4 °F - 6.8 °F 85% 29.32 in 10.0 mi Calm Calm - N/A   Mostly Cloudy
1:56 AM 10.4 °F - 6.8 °F 85% 29.31 in 10.0 mi Calm Calm - N/A   Overcast
2:16 AM 10.4 °F 4.0 °F 6.8 °F 85% 29.31 in 10.0 mi ENE 3.5 mph - N/A   Overcast
2:36 AM 12.2 °F - 6.8 °F 79% 29.30 in 10.0 mi Calm Calm - N/A   Overcast
2:56 AM 12.2 °F - 6.8 °F 79% 29.29 in 10.0 mi Calm Calm - N/A   Overcast
3:16 AM 12.2 °F - 8.6 °F 85% 29.29 in 10.0 mi Calm Calm - N/A   Overcast
3:36 AM 12.2 °F 2.9 °F 8.6 °F 85% 29.28 in 10.0 mi East 5.8 mph - N/A   Overcast
3:56 AM 12.2 °F - 8.6 °F 85% 29.27 in 10.0 mi Calm Calm - N/A   Overcast
4:16 AM 14.0 °F - 8.6 °F 79% 29.26 in 10.0 mi Calm Calm - N/A   Overcast
4:36 AM 15.8 °F - 8.6 °F 73% 29.25 in 10.0 mi Calm Calm - N/A   Overcast
4:56 AM 17.6 °F 9.3 °F 12.2 °F 79% 29.24 in 10.0 mi ENE 5.8 mph - N/A   Overcast
5:16 AM 19.4 °F 9.5 °F 12.2 °F 74% 29.23 in 10.0 mi NE 8.1 mph - N/A   Overcast
5:36 AM 19.4 °F 8.6 °F 12.2 °F 74% 29.22 in 10.0 mi NE 9.2 mph - N/A   Mostly Cloudy
5:56 AM 19.4 °F 10.4 °F 15.8 °F 86% 29.21 in 10.0 mi NE 6.9 mph - N/A   Overcast
6:16 AM 19.4 °F 10.4 °F 15.8 °F 86% 29.20 in 10.0 mi ENE 6.9 mph - N/A   Overcast
6:36 AM 19.4 °F 8.6 °F 15.8 °F 86% 29.19 in 10.0 mi NE 9.2 mph - N/A   Overcast
6:56 AM 21.2 °F 11.7 °F 15.8 °F 80% 29.19 in 10.0 mi ENE 8.1 mph - N/A   Overcast
7:16 AM 21.2 °F 11.7 °F 15.8 °F 80% 29.18 in 10.0 mi NE 8.1 mph - N/A   Overcast
7:36 AM 19.4 °F 9.5 °F 15.8 °F 86% 29.18 in 10.0 mi NE 8.1 mph - N/A   Overcast
7:56 AM 19.4 °F 7.9 °F 15.8 °F 86% 29.18 in 10.0 mi NE 10.4 mph - N/A   Overcast
8:16 AM 21.2 °F 10.1 °F 15.8 °F 80% 29.17 in 10.0 mi NNE 10.4 mph 18.4 mph N/A   Overcast
8:36 AM 21.2 °F 10.1 °F 15.8 °F 80% 29.16 in 10.0 mi NE 10.4 mph 18.4 mph N/A   Overcast
8:56 AM 21.2 °F 8.9 °F 15.8 °F 80% 29.15 in 10.0 mi NE 12.7 mph 23.0 mph N/A   Mostly Cloudy
9:16 AM 21.2 °F 8.9 °F 15.8 °F 80% 29.15 in 10.0 mi NE 12.7 mph 21.9 mph N/A   Partly Cloudy
9:36 AM 21.2 °F 10.1 °F 15.8 °F 80% 29.15 in 10.0 mi NE 10.4 mph 19.6 mph N/A   Scattered Clouds
9:56 AM 21.2 °F 12.6 °F 15.8 °F 80% 29.15 in 10.0 mi NE 6.9 mph - N/A   Overcast
10:16 AM 21.2 °F 13.6 °F 15.8 °F 80% 29.15 in 10.0 mi NE 5.8 mph - N/A   Mostly Cloudy
10:36 AM 21.2 °F 9.5 °F 15.8 °F 80% 29.15 in 10.0 mi ENE 11.5 mph 16.1 mph N/A   Scattered Clouds
10:56 AM 23.0 °F 11.1 °F 15.8 °F 74% 29.15 in 10.0 mi ENE 12.7 mph 18.4 mph N/A   Mostly Cloudy
11:16 AM 23.0 °F 11.1 °F 15.8 °F 74% 29.15 in 10.0 mi NE 12.7 mph 23.0 mph N/A   Overcast
11:36 AM 23.0 °F 10.6 °F 17.6 °F 80% 29.15 in 10.0 mi NE 13.8 mph 18.4 mph N/A   Overcast
11:56 AM 24.8 °F 16.1 °F 17.6 °F 74% 29.14 in 10.0 mi NE 8.1 mph 19.6 mph N/A   Overcast
12:16 PM 24.8 °F 15.3 °F 15.8 °F 69% 29.14 in 10.0 mi NE 9.2 mph 17.3 mph N/A   Scattered Clouds
12:36 PM 24.8 °F 14.0 °F 15.8 °F 69% 29.14 in 10.0 mi ENE 11.5 mph 17.3 mph N/A   Mostly Cloudy
12:56 PM 24.8 °F 15.3 °F 15.8 °F 69% 29.14 in 10.0 mi ENE 9.2 mph 19.6 mph N/A   Overcast
1:16 PM 24.8 °F 15.3 °F 15.8 °F 69% 29.14 in 10.0 mi ENE 9.2 mph 18.4 mph N/A   Overcast
1:36 PM 24.8 °F 14.6 °F 15.8 °F 69% 29.15 in 10.0 mi NE 10.4 mph - N/A   Overcast
1:56 PM 24.8 °F 14.0 °F 17.6 °F 74% 29.14 in 2.0 mi ENE 11.5 mph - N/A   Overcast
2:16 PM 24.8 °F 16.1 °F 19.4 °F 80% 29.14 in 3.0 mi ENE 8.1 mph 16.1 mph N/A   Mostly Cloudy
2:36 PM 24.8 °F 15.3 °F 19.4 °F 80% 29.14 in 0.8 mi ENE 9.2 mph - N/A   Overcast
2:56 PM 24.8 °F 16.9 °F 19.4 °F 80% 29.14 in 1.8 mi East 6.9 mph - N/A   Overcast
3:16 PM 24.8 °F 14.6 °F 19.4 °F 80% 29.14 in 7.0 mi ENE 10.4 mph - N/A   Overcast
3:36 PM 24.8 °F 14.6 °F 19.4 °F 80% 29.14 in 5.0 mi East 10.4 mph - N/A   Overcast
3:56 PM 24.8 °F 14.6 °F 19.4 °F 80% 29.14 in 8.0 mi East 10.4 mph - N/A   Overcast
4:16 PM 24.8 °F 16.9 °F 21.2 °F 86% 29.15 in 10.0 mi East 6.9 mph - N/A   Overcast
4:36 PM 24.8 °F 16.9 °F 21.2 °F 86% 29.16 in 5.0 mi East 6.9 mph - N/A   Mostly Cloudy
4:56 PM 24.8 °F 16.1 °F 21.2 °F 86% 29.17 in 2.0 mi East 8.1 mph - N/A   Mostly Cloudy
5:16 PM 24.8 °F 16.9 °F 21.2 °F 86% 29.17 in 0.5 mi ENE 6.9 mph - N/A   Mostly Cloudy
5:36 PM 24.8 °F 16.9 °F 21.2 °F 86% 29.17 in 10.0 mi ENE 6.9 mph - N/A   Mostly Cloudy
5:56 PM 24.8 °F 16.9 °F 21.2 °F 86% 29.18 in 10.0 mi ENE 6.9 mph - N/A   Overcast
6:16 PM 24.8 °F 19.1 °F 19.4 °F 80% 29.19 in 10.0 mi East 4.6 mph - N/A   Overcast
6:36 PM 23.0 °F 14.7 °F 19.4 °F 86% 29.19 in 10.0 mi East 6.9 mph - N/A   Mostly Cloudy
6:56 PM 21.2 °F - 19.4 °F 93% 29.20 in 10.0 mi Calm Calm - N/A   Partly Cloudy
7:16 PM 21.2 °F - 17.6 °F 86% 29.21 in 10.0 mi Calm Calm - N/A   Mostly Cloudy
7:36 PM 19.4 °F - 15.8 °F 86% 29.22 in 10.0 mi Calm Calm - N/A   Overcast
7:56 PM 21.2 °F 16.4 °F 17.6 °F 86% 29.23 in 10.0 mi SE 3.5 mph - N/A   Overcast
8:16 PM 21.2 °F - 17.6 °F 86% 29.25 in 10.0 mi Calm Calm - N/A   Overcast
8:36 PM 21.2 °F - 19.4 °F 93% 29.26 in 10.0 mi Calm Calm - N/A   Overcast
8:56 PM 21.2 °F - 17.6 °F 86% 29.27 in 10.0 mi Calm Calm - N/A   Overcast
9:16 PM 21.2 °F - 19.4 °F 93% 29.27 in 10.0 mi Calm Calm - N/A   Overcast
9:36 PM 21.2 °F - 19.4 °F 93% 29.28 in 10.0 mi Calm Calm - N/A   Overcast
9:56 PM 19.4 °F - 17.6 °F 93% 29.28 in 10.0 mi Calm Calm - N/A   Overcast
10:16 PM 19.4 °F - 17.6 °F 93% 29.29 in 10.0 mi Calm Calm - N/A   Overcast
10:36 PM 19.4 °F - 17.6 °F 93% 29.30 in 10.0 mi Calm Calm - N/A   Overcast
10:56 PM 19.4 °F 11.5 °F 17.6 °F 93% 29.30 in 10.0 mi East 5.8 mph - N/A   Overcast
11:16 PM 17.6 °F 12.3 °F 15.8 °F 93% 29.31 in 10.0 mi ENE 3.5 mph - N/A   Overcast
11:36 PM 17.6 °F - 15.8 °F 93% 29.31 in 10.0 mi Calm Calm - N/A   Overcast
11:56 PM 17.6 °F 10.7 °F 15.8 °F 93% 29.31 in 10.0 mi East 4.6 mph - N/A   Overcast